Time,TemperatureF,DewpointF,PressureIn,WindDirection,WindDirectionDegrees,WindSpeedMPH,WindSpeedGustMPH,Humidity,HourlyPrecipIn,Conditions,Clouds,dailyrainin,SoftwareType,DateUTC
2013-04-28 00:02:00,51.0,-99.9,30.10,SSW,193,17.0,20.0,-999,-99.99,,,-99.99,,2013-04-28 07:02:00,
2013-04-28 00:11:00,51.0,-99.9,30.09,South,188,17.0,19.0,-999,-99.99,,,-99.99,,2013-04-28 07:11:00,
2013-04-28 00:22:00,51.0,-99.9,30.09,South,188,17.0,19.0,-999,-99.99,,,-99.99,,2013-04-28 07:22:00,
2013-04-28 00:32:00,52.0,-99.9,30.09,SSW,193,15.0,19.0,-999,-99.99,,,-99.99,,2013-04-28 07:32:00,
2013-04-28 00:42:00,51.0,-99.9,30.09,SSW,192,15.0,18.0,-999,-99.99,,,-99.99,,2013-04-28 07:42:00,
2013-04-28 00:52:00,51.0,-99.9,30.09,South,189,16.0,19.0,-999,-99.99,,,-99.99,,2013-04-28 07:52:00,
2013-04-28 01:02:00,51.0,-99.9,30.09,South,189,16.0,19.0,-999,-99.99,,,-99.99,,2013-04-28 08:02:00,
2013-04-28 01:12:00,51.0,-99.9,30.09,South,189,16.0,19.0,-999,-99.99,,,-99.99,,2013-04-28 08:12:00,
2013-04-28 01:21:00,51.0,-99.9,30.09,South,183,15.0,19.0,-999,-99.99,,,-99.99,,2013-04-28 08:21:00,
2013-04-28 01:32:00,52.0,-99.9,30.09,South,182,15.0,20.0,-999,-99.99,,,-99.99,,2013-04-28 08:32:00,
2013-04-28 01:42:00,52.0,-99.9,30.09,South,182,15.0,20.0,-999,-99.99,,,-99.99,,2013-04-28 08:42:00,
2013-04-28 01:52:00,52.0,-99.9,30.09,South,181,14.0,18.0,-999,-99.99,,,-99.99,,2013-04-28 08:52:00,
2013-04-28 02:01:00,52.0,-99.9,30.09,South,181,14.0,18.0,-999,-99.99,,,-99.99,,2013-04-28 09:01:00,
2013-04-28 02:12:00,52.0,-99.9,30.08,South,188,13.0,17.0,-999,-99.99,,,-99.99,,2013-04-28 09:12:00,
2013-04-28 02:22:00,52.0,-99.9,30.08,South,185,14.0,17.0,-999,-99.99,,,-99.99,,2013-04-28 09:22:00,
2013-04-28 02:33:00,52.0,-99.9,30.08,South,186,12.0,16.0,-999,-99.99,,,-99.99,,2013-04-28 09:33:00,
2013-04-28 02:43:00,52.0,-99.9,30.08,South,182,12.0,15.0,-999,-99.99,,,-99.99,,2013-04-28 09:43:00,
2013-04-28 02:53:00,52.0,-99.9,30.08,South,182,12.0,15.0,-999,-99.99,,,-99.99,,2013-04-28 09:53:00,
2013-04-28 03:03:00,52.0,-99.9,30.07,South,186,12.0,15.0,-999,-99.99,,,-99.99,,2013-04-28 10:03:00,
2013-04-28 03:12:00,52.0,-99.9,30.07,South,186,12.0,15.0,-999,-99.99,,,-99.99,,2013-04-28 10:12:00,
2013-04-28 03:23:00,52.0,-99.9,30.06,South,188,13.0,15.0,-999,-99.99,,,-99.99,,2013-04-28 10:23:00,
2013-04-28 03:32:00,52.0,-99.9,30.06,SSW,192,11.0,13.0,-999,-99.99,,,-99.99,,2013-04-28 10:32:00,
2013-04-28 03:42:00,52.0,-99.9,30.06,South,185,11.0,13.0,-999,-99.99,,,-99.99,,2013-04-28 10:42:00,
2013-04-28 03:53:00,53.0,-99.9,30.06,SSE,162,10.0,13.0,-999,-99.99,,,-99.99,,2013-04-28 10:53:00,
2013-04-28 04:02:00,52.0,-99.9,30.06,SSW,194,11.0,14.0,-999,-99.99,,,-99.99,,2013-04-28 11:02:00,
2013-04-28 04:11:00,52.0,-99.9,30.06,South,191,12.0,14.0,-999,-99.99,,,-99.99,,2013-04-28 11:11:00,
2013-04-28 04:22:00,52.0,-99.9,30.06,SSW,197,11.0,14.0,-999,-99.99,,,-99.99,,2013-04-28 11:22:00,
2013-04-28 04:32:00,52.0,-99.9,30.06,SSW,193,12.0,15.0,-999,-99.99,,,-99.99,,2013-04-28 11:32:00,
2013-04-28 04:42:00,52.0,-99.9,30.06,SSW,193,12.0,15.0,-999,-99.99,,,-99.99,,2013-04-28 11:42:00,
2013-04-28 04:52:00,52.0,-99.9,30.06,South,191,12.0,14.0,-999,-99.99,,,-99.99,,2013-04-28 11:52:00,
2013-04-28 05:02:00,52.0,-99.9,30.05,South,191,12.0,15.0,-999,-99.99,,,-99.99,,2013-04-28 12:02:00,
2013-04-28 05:12:00,52.0,-99.9,30.05,SSW,197,10.0,15.0,-999,-99.99,,,-99.99,,2013-04-28 12:12:00,
2013-04-28 05:22:00,52.0,-99.9,30.05,South,189,13.0,15.0,-999,-99.99,,,-99.99,,2013-04-28 12:22:00,
2013-04-28 05:32:00,52.0,-99.9,30.05,SSW,193,11.0,14.0,-999,-99.99,,,-99.99,,2013-04-28 12:32:00,
2013-04-28 05:42:00,52.0,-99.9,30.05,SSW,199,10.0,13.0,-999,-99.99,,,-99.99,,2013-04-28 12:42:00,
2013-04-28 05:52:00,52.0,-99.9,30.05,SSW,202,9.0,13.0,-999,-99.99,,,-99.99,,2013-04-28 12:52:00,
2013-04-28 06:02:00,52.0,-99.9,30.05,SSW,210,9.0,14.0,-999,-99.99,,,-99.99,,2013-04-28 13:02:00,
2013-04-28 06:11:00,52.0,-99.9,30.05,SSW,206,10.0,14.0,-999,-99.99,,,-99.99,,2013-04-28 13:11:00,
2013-04-28 06:22:00,52.0,-99.9,30.05,SW,217,9.0,13.0,-999,-99.99,,,-99.99,,2013-04-28 13:22:00,
2013-04-28 06:32:00,52.0,-99.9,30.05,SW,216,8.0,14.0,-999,-99.99,,,-99.99,,2013-04-28 13:32:00,
2013-04-28 06:42:00,52.0,-99.9,30.05,SSW,198,9.0,13.0,-999,-99.99,,,-99.99,,2013-04-28 13:42:00,
2013-04-28 06:52:00,52.0,-99.9,30.05,SSW,193,10.0,13.0,-999,-99.99,,,-99.99,,2013-04-28 13:52:00,
2013-04-28 07:02:00,52.0,-99.9,30.05,SSW,195,11.0,13.0,-999,-99.99,,,-99.99,,2013-04-28 14:02:00,
2013-04-28 07:11:00,52.0,-99.9,30.05,SSW,195,11.0,13.0,-999,-99.99,,,-99.99,,2013-04-28 14:11:00,
2013-04-28 07:22:00,52.0,-99.9,30.05,SSW,193,11.0,13.0,-999,-99.99,,,-99.99,,2013-04-28 14:22:00,
2013-04-28 07:32:00,52.0,-99.9,30.05,SSW,194,9.0,13.0,-999,-99.99,,,-99.99,,2013-04-28 14:32:00,
2013-04-28 07:42:00,52.0,-99.9,30.05,SSW,194,9.0,13.0,-999,-99.99,,,-99.99,,2013-04-28 14:42:00,
2013-04-28 07:52:00,52.0,-99.9,30.06,SSW,196,9.0,11.0,-999,-99.99,,,-99.99,,2013-04-28 14:52:00,
2013-04-28 08:02:00,52.0,-99.9,30.06,SSW,207,7.0,11.0,-999,-99.99,,,-99.99,,2013-04-28 15:02:00,
2013-04-28 08:12:00,52.0,-99.9,30.06,SSW,213,7.0,11.0,-999,-99.99,,,-99.99,,2013-04-28 15:12:00,
2013-04-28 08:22:00,52.0,-99.9,30.06,SW,214,8.0,11.0,-999,-99.99,,,-99.99,,2013-04-28 15:22:00,
2013-04-28 08:33:00,53.0,-99.9,30.06,SSW,213,7.0,12.0,-999,-99.99,,,-99.99,,2013-04-28 15:33:00,
2013-04-28 08:43:00,53.0,-99.9,30.06,SW,224,8.0,11.0,-999,-99.99,,,-99.99,,2013-04-28 15:43:00,
2013-04-28 08:53:00,53.0,-99.9,30.06,SW,214,7.0,10.0,-999,-99.99,,,-99.99,,2013-04-28 15:53:00,
2013-04-28 09:03:00,53.0,-99.9,30.06,SW,221,6.0,9.0,-999,-99.99,,,-99.99,,2013-04-28 16:03:00,
2013-04-28 09:13:00,53.0,-99.9,30.06,SW,215,6.0,10.0,-999,-99.99,,,-99.99,,2013-04-28 16:13:00,
2013-04-28 09:23:00,53.0,-99.9,30.06,SW,218,6.0,9.0,-999,-99.99,,,-99.99,,2013-04-28 16:23:00,
2013-04-28 09:33:00,53.0,-99.9,30.07,SW,223,6.0,9.0,-999,-99.99,,,-99.99,,2013-04-28 16:33:00,
2013-04-28 09:43:00,53.0,-99.9,30.07,SW,224,6.0,8.0,-999,-99.99,,,-99.99,,2013-04-28 16:43:00,
2013-04-28 09:52:00,53.0,-99.9,30.07,SW,222,7.0,9.0,-999,-99.99,,,-99.99,,2013-04-28 16:52:00,
2013-04-28 10:02:00,54.0,-99.9,30.06,SW,224,6.0,8.0,-999,-99.99,,,-99.99,,2013-04-28 17:02:00,
2013-04-28 10:12:00,54.0,-99.9,30.06,SW,214,6.0,8.0,-999,-99.99,,,-99.99,,2013-04-28 17:12:00,
2013-04-28 10:22:00,54.0,-99.9,30.06,SW,214,5.0,7.0,-999,-99.99,,,-99.99,,2013-04-28 17:22:00,
2013-04-28 10:32:00,54.0,-99.9,30.06,SW,223,5.0,6.0,-999,-99.99,,,-99.99,,2013-04-28 17:32:00,
2013-04-28 10:43:00,55.0,-99.9,30.06,SW,221,4.0,7.0,-999,-99.99,,,-99.99,,2013-04-28 17:43:00,
2013-04-28 10:52:00,55.0,-99.9,30.06,SW,217,5.0,7.0,-999,-99.99,,,-99.99,,2013-04-28 17:52:00,
2013-04-28 11:02:00,56.0,-99.9,30.06,SW,222,6.0,8.0,-999,-99.99,,,-99.99,,2013-04-28 18:02:00,
2013-04-28 11:12:00,56.0,-99.9,30.06,SW,219,5.0,8.0,-999,-99.99,,,-99.99,,2013-04-28 18:12:00,
2013-04-28 11:22:00,56.0,-99.9,30.06,SW,221,6.0,8.0,-999,-99.99,,,-99.99,,2013-04-28 18:22:00,
2013-04-28 11:32:00,56.0,-99.9,30.06,SW,223,6.0,7.0,-999,-99.99,,,-99.99,,2013-04-28 18:32:00,
2013-04-28 11:42:00,57.0,-99.9,30.06,SW,223,6.0,8.0,-999,-99.99,,,-99.99,,2013-04-28 18:42:00,
2013-04-28 11:52:00,58.0,-99.9,30.06,SW,214,4.0,7.0,-999,-99.99,,,-99.99,,2013-04-28 18:52:00,
2013-04-28 12:02:00,60.0,-99.9,30.05,SW,217,4.0,5.0,-999,-99.99,,,-99.99,,2013-04-28 19:02:00,
2013-04-28 12:11:00,61.0,-99.9,30.05,SSW,195,3.0,5.0,-999,-99.99,,,-99.99,,2013-04-28 19:11:00,
2013-04-28 12:22:00,60.0,-99.9,30.05,SSW,213,4.0,6.0,-999,-99.99,,,-99.99,,2013-04-28 19:22:00,
2013-04-28 12:32:00,60.0,-99.9,30.04,SW,215,6.0,9.0,-999,-99.99,,,-99.99,,2013-04-28 19:32:00,
2013-04-28 12:42:00,58.0,-99.9,30.04,SW,222,10.0,12.0,-999,-99.99,,,-99.99,,2013-04-28 19:42:00,
2013-04-28 12:52:00,57.0,-99.9,30.04,SW,221,9.0,12.0,-999,-99.99,,,-99.99,,2013-04-28 19:52:00,
2013-04-28 13:02:00,58.0,-99.9,30.03,SW,223,8.0,11.0,-999,-99.99,,,-99.99,,2013-04-28 20:02:00,
2013-04-28 13:12:00,58.0,-99.9,30.03,SW,221,8.0,12.0,-999,-99.99,,,-99.99,,2013-04-28 20:12:00,
2013-04-28 13:22:00,58.0,-99.9,30.03,SW,221,8.0,12.0,-999,-99.99,,,-99.99,,2013-04-28 20:22:00,
2013-04-28 13:33:00,58.0,-99.9,30.02,SW,220,7.0,12.0,-999,-99.99,,,-99.99,,2013-04-28 20:33:00,
2013-04-28 13:42:00,58.0,-99.9,30.02,SW,222,8.0,11.0,-999,-99.99,,,-99.99,,2013-04-28 20:42:00,
2013-04-28 13:52:00,59.0,-99.9,30.02,SW,219,7.0,10.0,-999,-99.99,,,-99.99,,2013-04-28 20:52:00,
2013-04-28 14:01:00,59.0,-99.9,30.01,SW,222,6.0,10.0,-999,-99.99,,,-99.99,,2013-04-28 21:01:00,
2013-04-28 14:12:00,59.0,-99.9,30.01,SW,222,6.0,9.0,-999,-99.99,,,-99.99,,2013-04-28 21:12:00,
2013-04-28 14:22:00,58.0,-99.9,30.01,SW,219,6.0,9.0,-999,-99.99,,,-99.99,,2013-04-28 21:22:00,
2013-04-28 14:33:00,60.0,-99.9,30.00,SSW,213,5.0,8.0,-999,-99.99,,,-99.99,,2013-04-28 21:33:00,
2013-04-28 14:43:00,60.0,-99.9,30.00,SSW,204,4.0,8.0,-999,-99.99,,,-99.99,,2013-04-28 21:43:00,
2013-04-28 14:53:00,60.0,-99.9,30.00,SSW,203,4.0,7.0,-999,-99.99,,,-99.99,,2013-04-28 21:53:00,
2013-04-28 15:03:00,59.0,-99.9,29.99,SSW,192,5.0,8.0,-999,-99.99,,,-99.99,,2013-04-28 22:03:00,
2013-04-28 15:13:00,59.0,-99.9,29.98,SSW,199,5.0,8.0,-999,-99.99,,,-99.99,,2013-04-28 22:13:00,
2013-04-28 15:23:00,60.0,-99.9,29.98,SW,221,7.0,9.0,-999,-99.99,,,-99.99,,2013-04-28 22:23:00,
2013-04-28 15:34:00,59.0,-99.9,29.97,SW,220,7.0,11.0,-999,-99.99,,,-99.99,,2013-04-28 22:34:00,
2013-04-28 15:43:00,60.0,-99.9,29.97,SW,217,7.0,10.0,-999,-99.99,,,-99.99,,2013-04-28 22:43:00,
2013-04-28 15:52:00,60.0,-99.9,29.96,SSW,205,5.0,8.0,-999,-99.99,,,-99.99,,2013-04-28 22:52:00,
2013-04-28 16:02:00,60.0,-99.9,29.96,SSW,202,6.0,10.0,-999,-99.99,,,-99.99,,2013-04-28 23:02:00,
2013-04-28 16:12:00,60.0,-99.9,29.96,SSW,197,6.0,9.0,-999,-99.99,,,-99.99,,2013-04-28 23:12:00,
2013-04-28 16:22:00,60.0,-99.9,29.95,SSW,204,5.0,9.0,-999,-99.99,,,-99.99,,2013-04-28 23:22:00,
2013-04-28 16:32:00,60.0,-99.9,29.95,SSW,204,5.0,9.0,-999,-99.99,,,-99.99,,2013-04-28 23:32:00,
2013-04-28 16:42:00,60.0,-99.9,29.94,SSW,196,6.0,9.0,-999,-99.99,,,-99.99,,2013-04-28 23:42:00,
2013-04-28 16:52:00,60.0,-99.9,29.94,SSW,196,6.0,9.0,-999,-99.99,,,-99.99,,2013-04-28 23:52:00,
2013-04-28 17:32:00,61.0,-99.9,29.93,SSW,203,4.0,9.0,-999,-99.99,,,-99.99,,2013-04-29 00:32:00,
2013-04-28 17:42:00,61.0,-99.9,29.92,SSW,198,5.0,8.0,-999,-99.99,,,-99.99,,2013-04-29 00:42:00,
2013-04-28 17:52:00,62.0,-99.9,29.92,SSW,201,4.0,7.0,-999,-99.99,,,-99.99,,2013-04-29 00:52:00,
2013-04-28 18:01:00,61.0,-99.9,29.92,South,191,5.0,6.0,-999,-99.99,,,-99.99,,2013-04-29 01:01:00,
2013-04-28 18:12:00,63.0,-99.9,29.92,South,177,6.0,8.0,-999,-99.99,,,-99.99,,2013-04-29 01:12:00,
2013-04-28 18:22:00,63.0,-99.9,29.92,South,174,2.0,6.0,-999,-99.99,,,-99.99,,2013-04-29 01:22:00,
2013-04-28 18:32:00,61.0,-99.9,29.92,SSW,199,3.0,7.0,-999,-99.99,,,-99.99,,2013-04-29 01:32:00,
2013-04-28 18:42:00,61.0,-99.9,29.92,SSW,199,3.0,7.0,-999,-99.99,,,-99.99,,2013-04-29 01:42:00,
2013-04-28 18:52:00,61.0,-99.9,29.92,SSW,199,3.0,7.0,-999,-99.99,,,-99.99,,2013-04-29 01:52:00,
2013-04-28 19:02:00,61.0,-99.9,29.92,SSW,199,3.0,7.0,-999,-99.99,,,-99.99,,2013-04-29 02:02:00,
2013-04-28 19:11:00,63.0,-99.9,29.91,ESE,116,4.0,5.0,-999,-99.99,,,-99.99,,2013-04-29 02:11:00,
2013-04-28 19:22:00,61.0,-99.9,29.91,South,183,5.0,6.0,-999,-99.99,,,-99.99,,2013-04-29 02:22:00,
2013-04-28 19:32:00,61.0,-99.9,29.91,South,183,5.0,6.0,-999,-99.99,,,-99.99,,2013-04-29 02:32:00,
2013-04-28 19:42:00,61.0,-99.9,29.91,SSW,193,3.0,4.0,-999,-99.99,,,-99.99,,2013-04-29 02:42:00,
2013-04-28 19:52:00,61.0,-99.9,29.91,SSW,193,3.0,4.0,-999,-99.99,,,-99.99,,2013-04-29 02:52:00,
2013-04-28 20:02:00,60.0,-99.9,29.90,SSW,202,4.0,7.0,-999,-99.99,,,-99.99,,2013-04-29 03:02:00,
2013-04-28 20:12:00,60.0,-99.9,29.90,SSW,202,4.0,7.0,-999,-99.99,,,-99.99,,2013-04-29 03:12:00,
2013-04-28 20:22:00,60.0,-99.9,29.90,SSW,198,5.0,7.0,-999,-99.99,,,-99.99,,2013-04-29 03:22:00,
2013-04-28 20:33:00,59.0,-99.9,29.90,South,188,7.0,8.0,-999,-99.99,,,-99.99,,2013-04-29 03:33:00,
2013-04-28 20:43:00,59.0,-99.9,29.90,SSW,206,5.0,9.0,-999,-99.99,,,-99.99,,2013-04-29 03:43:00,
2013-04-28 20:53:00,60.0,-99.9,29.90,SSW,198,5.0,8.0,-999,-99.99,,,-99.99,,2013-04-29 03:53:00,
2013-04-28 21:03:00,59.0,-99.9,29.90,SSW,200,6.0,8.0,-999,-99.99,,,-99.99,,2013-04-29 04:03:00,
2013-04-28 21:13:00,59.0,-99.9,29.90,SSW,200,6.0,8.0,-999,-99.99,,,-99.99,,2013-04-29 04:13:00,
2013-04-28 21:23:00,60.0,-99.9,29.90,South,190,8.0,10.0,-999,-99.99,,,-99.99,,2013-04-29 04:23:00,
2013-04-28 21:33:00,60.0,-99.9,29.90,South,185,6.0,9.0,-999,-99.99,,,-99.99,,2013-04-29 04:33:00,
2013-04-28 21:43:00,59.0,-99.9,29.90,South,187,7.0,8.0,-999,-99.99,,,-99.99,,2013-04-29 04:43:00,
2013-04-28 21:52:00,59.0,-99.9,29.91,SSW,193,6.0,9.0,-999,-99.99,,,-99.99,,2013-04-29 04:52:00,
2013-04-28 22:02:00,58.0,-99.9,29.90,SSW,195,8.0,11.0,-999,-99.99,,,-99.99,,2013-04-29 05:02:00,
2013-04-28 22:12:00,59.0,-99.9,29.90,South,191,9.0,10.0,-999,-99.99,,,-99.99,,2013-04-29 05:12:00,
2013-04-28 22:22:00,59.0,-99.9,29.91,SSW,195,6.0,10.0,-999,-99.99,,,-99.99,,2013-04-29 05:22:00,
2013-04-28 22:32:00,59.0,-99.9,29.91,SSW,202,5.0,8.0,-999,-99.99,,,-99.99,,2013-04-29 05:32:00,
2013-04-28 22:42:00,59.0,-99.9,29.91,SSW,193,6.0,7.0,-999,-99.99,,,-99.99,,2013-04-29 05:42:00,
2013-04-28 22:52:00,59.0,-99.9,29.91,SSW,193,6.0,7.0,-999,-99.99,,,-99.99,,2013-04-29 05:52:00,
2013-04-28 23:02:00,58.0,-99.9,29.91,SSW,213,8.0,13.0,-999,-99.99,,,-99.99,,2013-04-29 06:02:00,
2013-04-28 23:12:00,57.0,-99.9,29.91,SSW,202,11.0,15.0,-999,-99.99,,,-99.99,,2013-04-29 06:12:00,
2013-04-28 23:22:00,56.0,-99.9,29.91,SSW,192,15.0,18.0,-999,-99.99,,,-99.99,,2013-04-29 06:22:00,
2013-04-28 23:32:00,56.0,-99.9,29.91,SSW,203,11.0,16.0,-999,-99.99,,,-99.99,,2013-04-29 06:32:00,
2013-04-28 23:42:00,56.0,-99.9,29.91,SSW,206,10.0,17.0,-999,-99.99,,,-99.99,,2013-04-29 06:42:00,
2013-04-28 23:52:00,56.0,-99.9,29.90,SSW,196,12.0,15.0,-999,-99.99,,,-99.99,,2013-04-29 06:52:00,